Date String (YYYY-MM-DD hh:mm:ss) UTC,Instrument flags,absolute air pressure of the measurement (hPa),sample flow rate (lpm),inlet stack bypass flow (lpm),air temperature of the measurement (°C),ambient temperature measured by the external sensor (°C),aerosol sample conditioner tube jacket temperature (°C),OPC LED temperature (°C),internal box temperature (°C),relative humidity of the measurement (%),span deviation,mass concentration of particles derived from Lorenz-Mie calculation of OPC scattering (μg/m³),mass concentration of particles derived from Lorenz-Mie calculation of OPC scattering (μg/m³),mass concentration of particles derived from Lorenz-Mie calculation of OPC scattering (μg/m³)
DateTimeUTC,F1_M11,P_M11,Q1_M11,Q2_M11,T1_M11,T2_M11,T3_M11,T4_M11,T5_M11,U1_M11,ZSPAN_M11,X2_M11,X0_M11,X1_M11
2023-11-25 20:00:00,SystemResetWarning,0827.8,5.01,000.00,018.7,017.7,000.0,027.2,020.0,12.8,0002.7,0006.42,0009.09,0006.14
2023-11-25 20:01:00,SystemResetWarning,0827.8,5.01,000.00,018.7,017.7,000.0,027.2,020.0,12.8,0002.1,0006.42,0009.12,0006.13
2023-11-25 20:02:00,SystemResetWarning,0827.8,5.00,000.00,018.7,017.7,000.0,027.2,020.0,12.6,0001.8,0006.41,0009.06,0006.13
2023-11-25 20:03:00,SystemResetWarning,0827.8,5.00,000.00,018.7,017.7,000.0,027.2,020.0,12.5,0001.6,0006.40,0009.00,0006.12
2023-11-25 20:04:00,SystemResetWarning,0827.7,5.00,000.00,018.7,017.6,000.0,027.2,020.0,12.5,0001.5,0006.40,0008.59,0006.12
2023-11-25 20:05:00,SystemResetWarning,0827.7,5.00,000.00,018.7,017.6,000.0,027.2,020.0,12.6,0001.4,0006.41,0008.65,0006.10
2023-11-25 20:06:00,SystemResetWarning,0827.7,4.99,000.00,018.7,017.6,000.0,027.2,020.0,12.7,0001.5,0006.41,0008.70,0006.10
2023-11-25 20:07:00,SystemResetWarning,0827.7,5.00,000.00,018.7,017.6,000.0,027.2,020.0,12.7,0000.0,0006.44,0008.84,0006.10
2023-11-25 20:08:00,SystemResetWarning,0827.7,5.00,000.00,018.7,017.6,000.0,027.2,020.0,12.7,0001.1,0006.48,0008.93,0006.11
2023-11-25 20:09:00,SystemResetWarning,0827.7,4.99,000.00,018.7,017.6,000.0,027.2,020.0,12.6,0001.0,0006.52,0009.18,0006.12
2023-11-25 20:10:00,SystemResetWarning,0827.7,4.99,000.00,018.7,017.6,000.0,027.1,020.0,12.5,0001.3,0006.55,0009.93,0006.12
2023-11-25 20:11:00,SystemResetWarning,0827.7,5.00,000.00,018.7,017.6,000.0,027.1,020.0,12.5,0001.5,0006.50,0009.84,0006.11
2023-11-25 20:12:00,SystemResetWarning,0827.7,5.02,000.00,018.7,017.6,000.0,027.1,020.0,12.5,0001.7,0006.49,0009.80,0006.12
2023-11-25 20:13:00,SystemResetWarning,0827.7,5.00,000.00,018.7,017.6,000.0,027.1,020.0,12.5,0001.7,0006.49,0009.79,0006.12
2023-11-25 20:14:00,SystemResetWarning,0827.7,5.00,000.00,018.7,017.6,000.0,027.1,020.0,12.5,0001.7,0006.46,0009.72,0006.12
2023-11-25 20:15:00,SystemResetWarning,0827.7,4.99,000.00,018.7,017.6,000.0,027.1,020.0,12.5,0001.5,0006.43,0009.65,0006.11
2023-11-25 20:16:00,SystemResetWarning,0827.7,5.00,000.00,018.7,017.6,000.0,027.1,020.0,12.5,0001.6,0006.41,0009.59,0006.12
2023-11-25 20:17:00,SystemResetWarning,0827.7,5.02,000.00,018.8,018.0,000.0,027.1,020.4,12.5,0001.8,0006.41,0009.54,0006.12
2023-11-25 20:18:00,SystemResetWarning,0827.7,4.99,000.00,018.9,018.9,000.0,027.1,020.9,12.5,0002.1,0006.41,0009.43,0006.13
2023-11-25 20:19:00,SystemResetWarning,0827.7,4.98,000.00,019.0,019.2,000.0,027.2,020.9,12.4,0002.2,0006.37,0009.29,0006.13
2023-11-25 20:20:00,SystemResetWarning,0827.7,5.02,000.00,019.0,019.1,000.0,027.2,020.6,12.5,0002.2,0006.34,0009.36,0006.12
2023-11-25 20:21:00,SystemResetWarning,0827.7,4.99,000.00,019.0,018.9,000.0,027.2,020.4,12.5,0002.1,0006.32,0008.81,0006.12
2023-11-25 20:22:00,SystemResetWarning,0827.7,4.99,000.00,019.0,018.8,000.0,027.2,020.3,12.5,0001.7,0006.35,0008.83,0006.14
2023-11-25 20:23:00,SystemResetWarning,0827.7,5.01,000.00,019.0,018.7,000.0,027.2,020.2,12.4,0001.3,0006.36,0008.93,0006.14
2023-11-25 20:24:00,SystemResetWarning,0827.7,5.01,000.00,019.0,018.6,000.0,027.2,020.2,12.4,0001.3,0006.36,0008.93,0006.14
2023-11-25 20:25:00,SystemResetWarning,0827.7,5.00,000.00,019.0,018.5,000.0,027.2,020.1,12.4,0001.2,0006.40,0009.02,0006.15
2023-11-25 20:26:00,SystemResetWarning,0827.7,4.99,000.00,019.0,018.4,000.0,027.2,020.1,12.4,0001.2,0006.43,0009.08,0006.16
2023-11-25 20:27:00,SystemResetWarning,0827.7,4.99,000.00,018.9,018.3,000.0,027.2,020.1,12.5,0000.6,0006.45,0009.12,0006.17
2023-11-25 20:28:00,SystemResetWarning,0827.7,5.00,000.00,018.9,018.3,000.0,027.2,020.1,12.5,0000.6,0006.45,0009.11,0006.18
2023-11-25 20:29:00,SystemResetWarning,0827.8,5.00,000.00,018.9,018.3,000.0,027.2,020.1,12.6,0000.8,0006.46,0009.14,0006.20
2023-11-25 20:30:00,SystemResetWarning,0827.8,5.00,000.00,018.9,018.2,000.0,027.2,020.1,12.6,0000.7,0006.47,0009.21,0006.20
2023-11-25 20:31:00,SystemResetWarning,0827.8,5.00,000.00,018.9,018.2,000.0,027.2,020.1,12.5,0000.9,0006.48,0009.02,0006.20
2023-11-25 20:32:00,SystemResetWarning,0827.7,5.00,000.00,018.9,018.2,000.0,027.2,020.1,12.7,0001.3,0006.50,0008.76,0006.21
2023-11-25 20:33:00,SystemResetWarning,0827.7,5.00,000.00,018.9,018.2,000.0,027.2,020.1,12.7,0001.4,0006.50,0008.76,0006.20
2023-11-25 20:34:00,SystemResetWarning,0827.7,5.00,000.00,018.9,018.2,000.0,027.2,020.1,12.7,0002.2,0006.50,0008.68,0006.20
2023-11-25 20:35:00,SystemResetWarning,0827.7,5.00,000.00,018.9,018.2,000.0,027.2,020.1,12.7,0001.9,0006.48,0008.64,0006.20
2023-11-25 20:36:00,SystemResetWarning,0827.7,5.00,000.00,018.9,018.2,000.0,027.2,020.1,12.9,0002.2,0006.49,0008.65,0006.20
2023-11-25 20:37:00,SystemResetWarning,0827.7,5.00,000.00,018.9,018.2,000.0,027.2,020.1,12.7,0002.3,0006.51,0008.68,0006.22
2023-11-25 20:38:00,SystemResetWarning,0827.7,5.00,000.00,018.9,018.2,000.0,027.2,020.1,12.6,0002.3,0006.51,0008.69,0006.23
2023-11-25 20:39:00,SystemResetWarning,0827.7,5.00,000.00,018.9,018.2,000.0,027.2,020.1,12.4,0002.3,0006.51,0008.68,0006.23
2023-11-25 20:40:00,SystemResetWarning,0827.7,5.00,000.00,018.9,018.2,000.0,027.2,020.1,12.5,0002.1,0006.52,0008.67,0006.23
2023-11-25 20:41:00,SystemResetWarning,0827.8,5.00,000.00,018.9,018.2,000.0,027.2,020.1,12.5,0002.2,0006.52,0008.76,0006.22
2023-11-25 20:42:00,SystemResetWarning,0827.7,5.00,000.00,018.9,018.2,000.0,027.2,020.1,12.4,0002.3,0006.55,0009.11,0006.24
2023-11-25 20:43:00,SystemResetWarning,0827.7,5.00,000.00,018.9,018.2,000.0,027.2,020.1,12.3,0001.5,0006.60,0009.19,0006.26
2023-11-25 20:44:00,SystemResetWarning,0827.7,5.00,000.00,018.9,018.2,000.0,027.2,020.1,12.4,0001.5,0006.64,0009.31,0006.28
2023-11-25 20:45:00,SystemResetWarning,0827.7,5.00,000.00,018.9,018.2,000.0,027.2,020.1,12.5,0001.1,0006.64,0009.31,0006.29
2023-11-25 20:46:00,SystemResetWarning,0827.6,5.00,000.00,018.9,018.2,000.0,027.2,020.1,12.3,0000.7,0006.66,0009.35,0006.30
2023-11-25 20:47:00,SystemResetWarning,0827.6,5.00,000.00,018.9,018.1,000.0,027.2,020.1,12.3,0001.2,0006.68,0009.38,0006.31
2023-11-25 20:48:00,SystemResetWarning,0827.6,5.00,000.00,018.9,018.1,000.0,027.2,020.1,12.6,0001.1,0006.69,0009.38,0006.32
2023-11-25 20:49:00,SystemResetWarning,0827.5,5.00,000.00,018.9,018.1,000.0,027.2,020.1,12.5,0001.3,0006.72,0009.41,0006.34
2023-11-25 20:50:00,SystemResetWarning,0827.5,5.00,000.00,018.9,018.1,000.0,027.2,020.1,12.8,0001.4,0006.72,0009.38,0006.35
2023-11-25 20:51:00,SystemResetWarning,0827.7,4.99,000.00,018.9,018.1,000.0,027.2,020.0,12.7,0001.3,0006.72,0009.38,0006.36
2023-11-25 20:52:00,SystemResetWarning,0827.7,5.00,000.00,018.9,018.1,000.0,027.2,020.0,12.7,0001.1,0006.76,0009.36,0006.40
2023-11-25 20:53:00,SystemResetWarning,0827.6,5.01,000.00,018.9,018.1,000.0,027.2,020.0,12.7,0000.8,0006.75,0008.94,0006.42
2023-11-25 20:54:00,SystemResetWarning,0827.6,5.01,000.00,018.9,018.1,000.0,027.2,020.0,12.6,0001.5,0006.73,0008.91,0006.43
2023-11-25 20:55:00,SystemResetWarning,0827.6,4.99,000.00,018.9,018.1,000.0,027.2,020.1,12.5,0001.4,0006.72,0008.84,0006.44
2023-11-25 20:56:00,SystemResetWarning,0827.9,4.99,000.00,018.9,018.1,000.0,027.2,020.0,12.7,0001.4,0006.72,0008.84,0006.44
2023-11-25 20:57:00,SystemResetWarning,0827.8,5.01,000.00,018.9,018.1,000.0,027.2,020.1,12.7,0001.8,0006.70,0008.76,0006.45
2023-11-25 20:58:00,SystemResetWarning,0827.6,5.01,000.00,018.9,018.1,000.0,027.2,020.1,12.5,0001.6,0006.69,0008.71,0006.45
2023-11-25 20:59:00,SystemResetWarning,0827.5,4.99,000.00,018.9,018.1,000.0,027.2,020.1,12.6,0001.0,0006.69,0008.72,0006.46
